Location: *
(58.7167°N, 26.1833°E)
Time: 00:48:41
(UTC+00:00)

Cosmos 864 Rocket - Pass Details

Date: 25 August 2019
Orbit: 952 x 992 km, 82.9° (Epoch: 20 September)

Event Time Altitude Azimuth Distance (km) Brightness Sun altitude
Rises 21:17:59 0° 346° (NNW) 3,646 9.2 -19.6°
Reaches altitude 10° 21:20:30 10° 345° (NNW) 2,695 8.1 -19.7°
Maximum altitude 21:26:38 76° 262° (W) 987 4.5 -19.9°
Enters shadow 21:29:25 35° 183° (S) 1,507 5.0 -20.0°
